Temperature
11 12 12 12 12 13 13 13 13 13 13 13 13 13 13 13 13 14 13 14 14 14 14 14 14 14 14 14 14 13 13 13 14 14 14 14 14 14 15 15 15 15 15
11 11 12 12 12 12 12 13 13 13 13 13 13 13 13 13 13 13 13 13 13 13 13 13 13 13 13 13 13 13 13 13 13 13 14 14 14 14 14 14 15 15 15
11 11 11 11 11 12 12 12 12 12 12 12 12 12 13 13 13 13 13 13 13 13 13 13 13 13 13 13 13 13 13 13 13 13 13 13 13 14 14 14 14 14 14
11 11 11 11 11 11 11 11 12 12 12 12 12 12 12 12 12 12 12 12 12 12 12 12 12 12 12 12 12 12 13 13 13 13 13 13 13 13 13 13 13 14 13
11 11 11 10 10 11 11 11 11 11 11 11 11 11 12 12 12 12 12 12 12 12 12 12 12 12 12 12 12 12 13 13 13 13 13 13 13 13 13 13 13 13 13
11 10 10 10 10 10 10 10 11 11 11 11 11 11 12 12 12 12 12 12 12 12 12 12 12 12 12 12 12 13 13 13 13 13 13 13 13 13 13 13 13 13 13
11 10 10 10 10 10 10 10 10 11 11 11 11 11 11 11 12 12 12 12 12 12 12 12 12 12 12 12 12 13 13 13 13 13 13 13 13 13 13 13 13 13 12
11 10 10 10 10 10 10 10 10 10 10 11 11 11 11 11 11 11 12 11 11 12 12 12 12 12 12 12 12 12 12 13 13 12 13 12 13 13 13 13 13 12 12
11 10 10 10 10 10 10 10 10 10 9 9 10 10 10 10 11 11 11 10 11 11 11 11 11 12 12 12 12 12 12 13 13 13 13 13 13 13 13 12 12 12 12
11 10 10 10 10 10 9 9 9 9 9 9 9 9 9 9 10 10 10 10 10 10 11 11 11 12 12 12 12 12 12 13 13 13 13 13 13 13 12 12 12 12 12
11 11 10 10 10 10 9 9 9 9 9 9 9 9 9 9 9 9 9 9 10 10 10 10 11 11 12 12 12 12 12 12 12 12 12 12 12 12 12 12 12 12 12
11 11 10 10 10 9 9 9 9 9 8 8 9 8 8 8 9 9 9 9 9 9 10 10 11 11 11 12 12 12 12 12 12 12 12 12 12 12 12 12 12 12 12
11 11 10 10 10 10 9 9 9 8 8 8 9 9 8 8 8 8 9 9 9 9 9 10 10 11 11 11 12 12 12 12 12 12 12 12 12 12 12 12 11 11 11
11 11 11 10 10 10 10 9 9 8 8 8 8 8 8 8 8 9 8 9 9 9 9 10 10 10 11 11 11 12 12 12 12 12 12 12 11 11 11 11 11 10 10
12 11 11 10 10 10 9 9 9 9 8 8 8 8 8 8 8 8 8 9 9 9 9 9 10 10 10 11 11 11 11 12 12 12 12 11 11 11 10 10 10 10 10
12 11 11 11 10 10 9 9 9 9 9 8 8 8 8 9 9 9 9 9 9 9 9 9 10 10 10 11 11 11 11 11 11 11 11 11 11 10 10 10 9 9 9
12 12 11 11 10 10 10 10 9 9 9 9 9 9 9 9 9 9 9 9 9 9 9 9 10 10 10 11 11 11 11 11 11 11 10 10 10 10 10 9 9 9 9
12 12 11 11 11 10 10 10 10 9 9 8 9 9 9 10 9 9 9 9 9 9 9 10 10 10 10 10 11 11 11 11 10 10 10 10 10 9 9 9 9 8 8
12 12 12 11 11 11 10 10 10 10 9 9 9 9 10 10 10 10 9 9 9 9 9 10 10 10 10 10 10 10 10 10 10 10 10 10 9 9 9 9 9 9 8
13 13 12 12 11 11 11 11 10 10 10 10 9 9 9 9 9 9 10 9 9 9 9 9 10 10 10 10 10 10 10 10 10 9 9 9 9 9 9 8 8 8 8
13 13 13 12 12 12 11 11 11 11 10 10 10 9 10 9 9 10 10 10 10 9 9 9 9 10 10 10 9 9 9 9 9 9 9 9 8 8 8 8 8 8 7
13 13 12 12 12 12 12 11 11 11 11 10 10 10 10 10 9 10 10 11 11 10 10 10 10 10 10 10 9 9 8 8 8 8 8 8 8 8 8 8 7 7 7
13 13 13 13 12 12 12 12 12 11 11 11 11 10 10 10 10 10 10 11 11 11 11 11 10 10 10 10 10 9 8 8 8 8 8 7 7 7 7 7 7 7 7
13 13 13 13 13 13 12 12 12 12 12 11 11 11 10 10 10 10 10 11 11 11 11 11 11 11 11 11 11 10 10 10 9 9 8 7 7 7 7 7 7 6 6
13 13 13 13 13 13 13 12 12 12 12 12 12 11 11 11 11 11 11 11 11 11 11 11 11 11 11 11 11 11 11 11 10 10 9 8 8 7 7 7 7 6 6
13 13 13 13 13 13 13 13 13 12 12 12 12 12 12 11 11 11 11 11 11 11 12 12 12 12 12 12 12 11 11 11 11 10 10 9 8 8 8 7 7 7 6
Wind_Speed
12 11 11 11 10 10 10 10 9 8 8 8 7 6 6 6 5 4 3 2 1 0 2 4 5 5 5 6 6 6 5 4 3 2 2 3 4 4 4 5 6 7 9
10 10 10 10 10 10 10 10 10 9 9 8 8 7 7 6 5 4 4 3 3 3 2 2 3 4 5 5 5 6 5 4 4 4 4 4 5 4 4 4 4 5 5
10 10 11 11 11 11 11 10 10 10 10 10 9 9 8 7 5 4 2 2 2 3 3 3 3 4 5 5 5 5 4 4 3 4 4 3 4 4 5 4 5 4 5
10 11 11 10 10 11 11 11 11 11 11 11 11 10 10 9 9 6 3 1 1 1 2 3 4 4 5 5 4 5 5 5 4 4 4 4 4 4 5 5 6 5 5
9 10 10 9 9 9 10 10 11 11 11 11 11 11 11 11 12 11 6 4 2 1 1 2 3 4 5 5 4 4 5 4 4 4 5 4 4 5 4 4 6 7 6
8 9 8 8 8 8 9 10 11 11 11 11 11 11 12 11 14 15 11 6 5 3 2 3 4 3 4 4 4 3 3 3 4 4 4 5 5 4 4 5 7 7 4
8 8 8 8 8 8 8 9 10 10 11 11 11 10 10 13 16 14 12 7 6 5 4 3 3 5 5 4 5 6 5 5 2 1 4 4 5 5 6 6 6 6 6
7 8 8 7 7 7 7 8 9 9 9 9 9 10 9 12 16 14 11 5 6 6 5 4 4 6 5 5 5 5 6 6 4 3 6 6 5 5 5 7 10 11 9
6 7 7 7 6 7 7 7 8 8 8 8 8 9 9 10 15 15 13 5 4 5 5 5 4 6 7 5 5 6 7 7 11 15 14 12 11 9 5 7 9 9 7
5 5 6 6 6 6 7 7 6 6 7 7 7 8 9 10 13 15 13 5 4 4 4 5 7 5 5 3 6 6 7 6 7 8 8 9 9 9 4 4 5 8 8
3 4 4 5 6 6 6 6 6 6 6 7 7 7 8 9 11 14 13 6 4 3 3 4 5 6 5 3 2 5 5 7 7 7 7 7 7 7 7 7 6 4 6
3 3 4 4 5 5 5 5 6 6 6 7 7 8 7 8 9 11 11 9 7 3 4 4 5 6 5 4 4 7 7 6 6 6 7 7 7 8 8 10 12 12 11
3 3 3 4 4 5 5 5 5 6 6 6 7 7 7 7 8 9 8 7 7 4 5 8 7 5 6 7 8 8 6 6 6 7 7 7 7 8 8 9 11 13 14
3 3 2 2 3 4 4 4 5 5 6 6 7 8 7 8 9 9 7 4 3 4 5 7 7 7 7 8 7 5 4 5 6 7 8 7 6 6 6 6 7 7 8
3 3 2 2 2 2 3 3 4 5 5 6 7 7 8 8 10 11 9 7 5 4 3 4 5 5 6 6 6 5 5 6 7 7 7 7 6 6 5 4 4 4 6
3 3 2 2 1 1 2 2 2 1 2 3 6 7 6 8 10 9 10 10 8 5 3 6 6 6 5 5 6 6 6 6 6 6 6 6 6 5 5 5 4 5 6
3 3 3 2 1 0 1 2 2 3 4 3 4 6 7 9 10 10 9 8 10 7 6 6 6 5 5 5 5 6 6 6 6 6 6 5 5 5 5 5 4 5 5
4 3 3 3 2 1 0 1 2 3 2 2 3 4 4 6 9 10 9 3 7 7 6 6 5 5 5 5 5 6 6 6 6 6 6 5 5 5 4 4 4 4 4
5 4 4 3 3 2 2 1 0 1 2 2 2 3 3 2 2 5 6 5 6 6 6 5 5 5 5 5 5 5 6 6 6 6 5 5 4 4 4 4 4 3 3
4 3 4 5 4 4 3 3 2 1 1 1 2 3 2 2 3 4 4 4 4 5 5 5 5 5 5 5 5 5 5 6 6 5 5 4 3 3 4 4 4 4 4
5 6 8 6 5 4 4 4 3 2 2 1 1 2 2 2 3 3 2 2 2 3 3 3 3 3 3 3 3 4 4 4 4 4 4 3 3 3 3 3 4 4 5
5 5 6 6 5 5 5 5 4 4 3 3 2 3 5 3 0 1 1 2 2 2 1 1 1 2 1 1 1 3 3 4 4 4 3 3 3 3 3 4 4 5 5
6 5 6 6 6 6 6 6 5 5 5 4 4 3 4 4 3 2 2 3 3 3 3 3 2 2 2 2 2 2 3 3 3 3 3 4 4 4 4 4 5 5 5
6 6 6 6 6 6 7 7 6 6 6 6 5 5 5 5 5 4 4 4 4 4 5 5 4 4 4 4 4 4 3 3 4 4 4 4 4 4 4 4 5 6 5
7 7 6 6 6 7 7 7 7 7 7 7 6 6 6 6 6 6 6 6 6 6 7 7 6 6 6 6 6 6 5 4 3 4 5 5 5 5 5 6 5 6 6
8 8 7 6 6 7 7 7 7 7 7 7 7 7 7 7 7 7 7 7 7 7 7 8 9 8 7 7 8 8 7 7 7 6 6 6 6 6 7 6 7 7 7
Wind_Direction
17 19 24 25 25 28 29 30 30 32 35 39 39 45 48 47 46 51 54 49 66 93 216 203 199 192 188 181 178 177 182 178 187 179 194 193 200 207 184 202 203 203 193
17 22 28 29 30 33 33 31 34 36 36 37 38 39 40 37 36 40 45 49 59 70 84 129 162 172 172 169 170 170 171 177 187 189 191 196 203 191 189 187 186 190 176
17 22 29 31 32 34 35 35 36 37 35 38 40 38 35 29 25 27 31 38 60 82 103 114 128 135 138 142 150 157 159 172 185 191 180 174 188 180 179 169 163 154 141
19 23 27 30 34 37 39 37 39 40 38 35 38 38 36 31 20 11 13 22 34 69 113 123 131 137 138 135 140 151 158 165 170 176 172 174 174 176 183 169 153 137 127
22 25 25 30 37 39 41 40 40 41 40 36 36 37 37 33 21 8 4 19 16 30 94 118 122 122 141 146 151 159 164 162 166 175 171 169 167 171 170 163 144 128 108
25 28 27 29 37 37 37 36 35 35 35 33 31 32 35 32 20 17 5 23 25 31 54 92 113 122 133 134 136 137 137 160 169 171 165 161 152 148 146 153 149 147 119
27 30 30 31 34 32 33 33 30 30 29 28 25 25 27 26 19 18 10 19 32 34 36 68 103 102 109 117 122 125 100 67 29 148 136 129 134 141 150 151 149 127 107
32 33 31 31 33 30 29 29 26 26 27 25 22 18 19 22 15 13 354 26 42 43 45 64 103 113 111 110 116 103 94 82 60 84 95 93 96 115 125 122 115 110 101
38 35 32 33 33 30 27 25 22 20 22 25 25 19 17 18 14 8 350 27 46 51 49 56 78 110 105 109 117 114 101 85 67 68 69 77 68 58 79 127 133 129 118
47 42 39 37 37 34 29 22 22 22 22 24 28 22 19 16 13 9 357 15 38 56 60 71 66 73 100 118 146 143 130 121 115 107 100 104 97 86 48 120 136 137 132
70 58 51 47 46 36 29 27 24 27 26 26 29 29 26 20 15 15 7 11 21 46 68 72 71 69 85 87 147 143 138 135 127 115 103 93 85 81 75 71 73 102 121
107 86 69 55 47 45 41 34 32 28 30 27 23 26 21 21 17 12 14 17 1 49 62 71 76 75 89 88 114 115 125 135 131 120 105 94 89 83 78 78 78 74 76
136 116 96 80 61 45 40 38 35 31 27 25 20 18 15 14 14 8 16 24 17 48 69 66 71 80 121 107 108 129 148 143 133 120 107 99 97 100 97 93 90 85 77
150 135 125 92 74 60 40 33 31 24 21 20 17 13 10 15 13 2 1 26 75 88 96 100 94 74 92 100 124 137 138 127 127 120 115 116 116 113 109 109 108 106 92
164 158 141 109 73 47 52 35 22 39 23 1 6 7 8 8 5 357 2 12 26 56 94 112 114 114 107 105 102 100 111 121 118 122 128 132 130 122 112 104 106 111 112
180 172 167 151 120 42 40 85 137 333 38 23 16 3 30 24 1 10 19 25 29 25 82 92 93 94 96 98 100 101 102 108 115 124 130 133 133 129 120 112 112 115 118
196 180 180 185 171 128 32 23 56 144 169 125 64 35 28 19 17 18 14 27 37 42 76 81 83 86 89 93 98 103 103 107 115 122 125 126 126 125 123 120 120 124 127
204 184 196 194 203 213 31 27 23 25 53 83 117 88 48 32 26 16 352 10 66 61 66 71 76 80 86 94 100 107 112 116 117 117 117 118 122 125 127 130 132 136 141
209 201 202 204 206 218 221 237 348 21 28 31 34 103 118 166 126 27 4 55 66 67 70 72 76 86 93 99 103 110 115 116 117 118 117 119 125 132 136 138 128 121 163
215 208 225 218 214 217 222 231 239 271 333 2 17 27 40 35 51 56 53 56 66 70 71 76 76 81 92 100 109 118 122 122 126 126 126 128 129 135 145 152 154 162 162
220 200 202 228 228 228 232 236 237 246 272 303 349 62 354 5 47 63 69 76 78 79 77 76 81 84 87 101 120 133 138 138 139 140 141 141 142 144 151 156 158 158 152
231 224 218 224 226 228 232 233 235 238 245 254 248 184 192 247 284 126 133 142 145 142 126 126 113 95 88 116 162 174 172 167 163 164 160 159 159 163 167 170 170 167 166
236 235 232 232 231 220 229 234 231 233 238 241 239 228 215 228 229 220 200 185 182 183 179 187 184 180 187 198 208 220 207 188 181 182 184 181 184 185 186 182 181 184 183
232 237 242 241 236 234 231 232 231 231 234 238 236 233 229 224 223 218 211 199 197 198 198 202 207 203 203 206 206 207 201 178 186 192 201 200 198 197 193 190 196 196 190
231 235 241 246 243 239 238 237 236 234 232 234 236 234 230 225 220 213 209 203 203 206 206 209 209 210 211 208 207 202 174 175 203 210 198 202 202 201 202 201 202 199 199
228 234 239 244 244 243 242 241 239 239 238 236 235 234 231 226 221 214 208 205 204 205 206 209 213 212 211 214 210 193 184 195 204 217 219 209 204 205 204 207 205 206 205
Height
1524 1522 1519 1516 1514 1512 1511 1509 1508 1507 1506 1506 1505 1504 1504 1503 1502 1502 1501 1501 1501 1501 1501 1502 1503 1505 1507 1510 1512 1515 1519 1522 1526 1529 1531 1533 1535 1537 1538 1539 1541 1543 1545
1529 1526 1523 1520 1518 1516 1514 1512 1511 1510 1509 1508 1506 1506 1505 1504 1503 1503 1502 1501 1500 1499 1499 1499 1500 1502 1504 1506 1509 1512 1515 1518 1522 1525 1528 1530 1532 1533 1535 1536 1538 1540 1542
1532 1529 1526 1524 1521 1519 1517 1515 1513 1512 1511 1510 1508 1507 1506 1505 1504 1504 1503 1502 1501 1500 1499 1499 1499 1500 1502 1504 1507 1510 1513 1516 1520 1523 1525 1527 1529 1530 1532 1533 1535 1537 1539
1535 1532 1529 1526 1524 1522 1520 1518 1516 1514 1512 1511 1510 1509 1507 1506 1505 1504 1503 1503 1502 1501 1500 1500 1500 1501 1502 1504 1507 1509 1512 1515 1518 1521 1523 1525 1526 1527 1529 1531 1533 1534 1536
1538 1535 1531 1529 1527 1525 1523 1520 1519 1517 1515 1513 1512 1510 1508 1507 1505 1504 1504 1503 1502 1502 1502 1501 1501 1502 1504 1505 1508 1510 1512 1515 1517 1519 1521 1523 1524 1525 1527 1528 1531 1532 1535
1541 1537 1534 1532 1529 1527 1525 1523 1521 1519 1517 1515 1513 1511 1509 1508 1506 1505 1504 1503 1502 1502 1502 1502 1503 1503 1505 1507 1509 1511 1513 1515 1518 1519 1520 1522 1523 1524 1525 1526 1529 1531 1534
1543 1539 1536 1534 1531 1529 1527 1525 1523 1521 1519 1517 1515 1513 1511 1509 1507 1505 1504 1504 1503 1502 1503 1503 1503 1504 1506 1508 1510 1512 1514 1516 1518 1519 1520 1521 1522 1522 1524 1526 1528 1531 1532
1545 1541 1538 1536 1534 1532 1530 1527 1525 1523 1521 1518 1516 1514 1512 1510 1508 1506 1505 1504 1503 1503 1503 1503 1504 1505 1507 1509 1511 1513 1515 1516 1518 1520 1521 1521 1522 1523 1524 1526 1528 1530 1533
1546 1543 1541 1538 1536 1534 1531 1529 1527 1524 1522 1520 1517 1515 1513 1511 1508 1506 1505 1505 1504 1504 1504 1504 1505 1506 1508 1510 1512 1514 1516 1518 1519 1520 1521 1522 1523 1524 1525 1527 1529 1532 1534
1547 1545 1542 1540 1538 1535 1533 1531 1528 1526 1524 1522 1519 1516 1514 1512 1509 1507 1505 1505 1505 1504 1504 1505 1506 1507 1509 1511 1514 1516 1518 1520 1521 1522 1524 1524 1525 1526 1528 1530 1532 1534 1536
1548 1546 1544 1542 1539 1537 1534 1532 1530 1528 1525 1523 1521 1519 1516 1513 1510 1508 1506 1505 1504 1505 1505 1506 1506 1508 1510 1512 1515 1517 1519 1521 1523 1524 1526 1527 1528 1529 1530 1531 1533 1536 1537
1548 1546 1545 1543 1541 1538 1536 1534 1531 1529 1527 1525 1523 1521 1518 1515 1512 1509 1507 1505 1505 1505 1505 1506 1507 1509 1511 1513 1516 1518 1520 1523 1524 1526 1528 1529 1530 1532 1533 1534 1535 1536 1537
1548 1547 1546 1544 1542 1540 1538 1535 1533 1531 1530 1528 1525 1523 1520 1517 1514 1511 1509 1507 1506 1506 1506 1507 1508 1510 1512 1515 1517 1519 1522 1524 1526 1528 1530 1531 1533 1534 1535 1536 1537 1538 1539
1549 1548 1547 1545 1544 1541 1539 1537 1535 1533 1531 1529 1527 1525 1522 1520 1516 1513 1511 1510 1508 1508 1508 1509 1510 1512 1514 1516 1518 1521 1523 1526 1528 1530 1531 1533 1535 1536 1537 1539 1539 1540 1541
1549 1548 1547 1546 1544 1543 1541 1538 1536 1534 1532 1530 1528 1526 1523 1521 1518 1515 1513 1511 1510 1510 1510 1511 1513 1514 1516 1518 1520 1523 1525 1528 1529 1531 1533 1535 1536 1538 1539 1540 1541 1542 1542
1549 1548 1548 1546 1545 1544 1542 1540 1537 1535 1533 1531 1529 1527 1525 1523 1520 1518 1515 1514 1513 1512 1513 1514 1515 1516 1518 1520 1522 1525 1527 1529 1531 1533 1535 1536 1537 1539 1540 1540 1541 1542 1542
1549 1548 1547 1546 1545 1544 1543 1541 1539 1537 1534 1532 1530 1528 1526 1524 1522 1520 1518 1517 1516 1516 1516 1517 1518 1519 1521 1523 1525 1527 1529 1531 1532 1534 1536 1537 1538 1539 1540 1540 1540 1541 1542
1548 1547 1546 1546 1545 1544 1543 1542 1540 1538 1537 1535 1532 1529 1527 1526 1524 1523 1522 1521 1521 1520 1519 1520 1521 1522 1524 1525 1527 1529 1531 1532 1534 1535 1536 1537 1538 1539 1539 1540 1540 1540 1541
1546 1546 1545 1545 1545 1544 1543 1542 1540 1539 1538 1536 1534 1532 1529 1527 1526 1525 1525 1524 1524 1523 1523 1524 1524 1525 1526 1528 1529 1531 1532 1533 1535 1536 1536 1537 1538 1538 1538 1539 1539 1538 1540
1544 1544 1543 1544 1544 1543 1543 1542 1541 1540 1538 1537 1535 1533 1531 1530 1529 1527 1527 1526 1526 1526 1526 1526 1527 1528 1529 1530 1531 1532 1533 1534 1535 1536 1536 1537 1537 1537 1537 1537 1538 1538 1539
1541 1541 1541 1541 1542 1542 1542 1541 1540 1539 1538 1537 1536 1533 1531 1530 1529 1528 1527 1527 1527 1527 1527 1527 1528 1529 1529 1530 1531 1532 1533 1534 1534 1535 1535 1535 1536 1536 1536 1536 1537 1537 1538
1539 1539 1539 1539 1539 1539 1539 1539 1539 1538 1537 1536 1535 1533 1531 1530 1530 1529 1528 1527 1527 1527 1527 1527 1527 1528 1528 1529 1530 1531 1532 1532 1533 1533 1533 1534 1534 1534 1535 1535 1536 1537 1538
1535 1535 1536 1536 1536 1536 1536 1536 1536 1536 1536 1535 1534 1533 1532 1531 1530 1529 1528 1527 1526 1526 1526 1526 1526 1526 1527 1527 1527 1528 1529 1530 1530 1531 1531 1532 1532 1533 1534 1535 1535 1536 1537
1531 1531 1532 1532 1532 1533 1533 1533 1533 1533 1533 1533 1533 1532 1531 1530 1529 1528 1527 1526 1525 1525 1525 1525 1525 1525 1525 1525 1525 1525 1526 1526 1527 1528 1529 1530 1531 1532 1533 1533 1534 1535 1536
1526 1527 1527 1528 1528 1529 1529 1530 1530 1530 1530 1530 1530 1530 1529 1528 1528 1527 1526 1525 1524 1524 1524 1523 1523 1523 1523 1523 1523 1523 1523 1524 1525 1525 1526 1527 1528 1529 1530 1531 1532 1533 1534
1522 1522 1523 1523 1524 1524 1525 1525 1526 1526 1526 1526 1526 1526 1526 1525 1525 1525 1524 1523 1522 1522 1522 1522 1521 1521 1521 1521 1521 1521 1521 1522 1523 1523 1524 1525 1526 1527 1528 1529 1529 1530 1531